Hauptseite
METAR-TAF:

METAR-TAF

Flughäfen :

Militärflugplatz Emmen

Emmen, Schweiz

Breite: 47-05-32N, Länge: 8-18-16E, Höhe: 426 m

Beobachtung

Neuester Wetterbericht von vor 33 Minuten, um 05:50 UTC
Windstille
Temperatur -6°C
Luftfeuchtigkeit 93%
Luftdruck 996 hPa
Sichtweite: 5000 m
Aufgelockert bewölkt in der Höhe von 8100 ft
feuchter Dunst

METAR: LSME 230550Z 00000KT 5000 BR SCT081 M06/M07 Q0996 RMK WHT

Zeit: 07:23 (06:23 UTC)


TAF: fehlend

Wetterbeobachtungen und Prognosen von mehr als 4000 Flughäfen (METAR und TAF Bericht).

Die verfügbaren Stationen werden durch gelbe und rote Markierungen auf der Karte dargestellt.

Führen Sie die Maus auf sie, um den Namen der Station zu sehen.

Darauf klicken, um die Beobachtung von Wetterbeobachtungen und Prognosen zu sehen.

Um die Karte zu ändern : klicken Sie auf den grünen Tasten mit einem schwarzen Kreuz Zum Vergrößern, auf den grünen Button mit einem Gedankenstrich zu verkleinern, oder auf die grünen Pfeile für benachbarte Karten.


METAR-TAF: